| time (UTC) | temp C | wind direction | speed KPH | gust KPH | rain 1hr cm | rain 24hr cm | rain mn cm | humidity % | barometer mb |
| 20260906050613 | 9 | 133 | 4.8 | 11.3 | 0.00 | 0.00 | 0.00 | 78 | 1005.7 |
| 20260906044619 | 9 | 116 | 3.2 | 11.3 | 0.00 | 0.00 | 0.00 | 79 | 1005.5 |
| 20260906042646 | 8 | 137 | 3.2 | 11.3 | 0.00 | 0.00 | 0.00 | 82 | 1005.4 |
| 20260906040952 | 8 | 162 | 4.8 | 11.3 | 0.00 | 0.00 | 0.00 | 83 | 1005.2 |
| 20260906035247 | 8 | 124 | 3.2 | 12.9 | 0.00 | 0.00 | 0.00 | 81 | 1005.0 |
| 20260906035244 | 8 | 124 | 3.2 | 12.9 | 0.00 | 0.00 | 0.00 | 81 | 1005.0 |
| 20260906033438 | 8 | 148 | 4.8 | 12.9 | 0.00 | 0.00 | 0.00 | 81 | 1004.7 |
| 20260906031458 | 8 | 135 | 4.8 | 11.3 | 0.00 | 0.00 | 0.00 | 81 | 1004.4 |
| 20260906025500 | 8 | 134 | 3.2 | 11.3 | 0.00 | 0.00 | 0.00 | 82 | 1004.1 |
| 20260906023723 | 8 | 140 | 3.2 | 9.7 | 0.00 | 0.00 | 0.00 | 84 | 1003.9 |
| 20260906022013 | 8 | 131 | 3.2 | 9.7 | 0.00 | 0.00 | 0.00 | 84 | 1003.7 |
| 20260906020203 | 8 | 143 | 3.2 | 11.3 | 0.00 | 0.00 | 0.00 | 84 | 1003.6 |
| 20260906014452 | 8 | 115 | 3.2 | 12.9 | 0.00 | 0.00 | 0.00 | 84 | 1003.4 |
| 20260906012627 | 8 | 117 | 3.2 | 12.9 | 0.00 | 0.00 | 0.00 | 84 | 1003.1 |
| 20260906004733 | 8 | 133 | 3.2 | 12.9 | 0.00 | 0.00 | 0.00 | 83 | 1002.8 |
| 20260906002935 | 9 | 153 | 3.2 | 12.9 | 0.00 | 0.00 | 0.00 | 83 | 1002.5 |
| 20260906001316 | 10 | 221 | 3.2 | 14.5 | 0.00 | 0.00 | 0.00 | 83 | 1002.3 |
| 20260905233658 | 10 | 144 | 3.2 | 9.7 | 0.00 | 0.00 | 0.00 | 83 | 1001.9 |
| 20260905232003 | 10 | 162 | 1.6 | 11.3 | 0.00 | 0.00 | 0.00 | 84 | 1001.7 |
| 20260905224358 | 10 | 178 | 1.6 | 8.0 | 0.00 | 0.00 | 0.00 | 85 | 1001.3 |
| 20260905222559 | 10 | 148 | 3.2 | 9.7 | 0.00 | 0.00 | 0.00 | 88 | 1001.2 |
| 20260905220807 | 10 | 193 | 1.6 | 8.0 | 0.00 | 0.00 | 0.00 | 88 | 1001.1 |
| 20260905213123 | 10 | 207 | 1.6 | 6.4 | 0.00 | 0.00 | 0.00 | 86 | 1000.8 |
| 20260905211158 | 11 | 201 | 1.6 | 8.0 | 0.00 | 0.00 | 0.00 | 84 | 1000.5 |
| 20260905205253 | 11 | 200 | 1.6 | 6.4 | 0.00 | 0.00 | 0.00 | 82 | 1000.3 |
| 20260905203443 | 11 | 112 | 1.6 | 6.4 | 0.00 | 0.00 | 0.00 | 82 | 1000.1 |
| 20260905201524 | 12 | 189 | 1.6 | 8.0 | 0.00 | 0.00 | 0.00 | 80 | 999.9 |
| 20260905195859 | 12 | 151 | 1.6 | 6.4 | 0.00 | 0.00 | 0.00 | 79 | 999.7 |
| 20260905194023 | 12 | 282 | 0.0 | 4.8 | 0.00 | 0.00 | 0.00 | 77 | 999.6 |
| 20260905192344 | 12 | 237 | 0.0 | 3.2 | 0.00 | 0.00 | 0.00 | 76 | 999.4 |
| 20260905190459 | 12 | 181 | 0.0 | 4.8 | 0.00 | 0.00 | 0.00 | 76 | 999.4 |
| 20260905184817 | 12 | 200 | 0.0 | 3.2 | 0.00 | 0.00 | 0.00 | 76 | 999.3 |
| 20260905183038 | 12 | 176 | 1.6 | 4.8 | 0.00 | 0.00 | 0.00 | 78 | 999.1 |
| 20260905181419 | -17 | 199 | 0.0 | 4.8 | 0.00 | 0.00 | 0.00 | 78 | 999.1 |
| 20260905181414 | 11 | 199 | 0.0 | 4.8 | 0.00 | 0.00 | 0.00 | 78 | 999.1 |
| 20260905175636 | 11 | 171 | 1.6 | 6.4 | 0.00 | 0.00 | 0.00 | 78 | 998.9 |
| 20260905164638 | 13 | 197 | 0.0 | 4.8 | 0.00 | 0.00 | 0.00 | 72 | 998.3 |
| 20260905163018 | 13 | 168 | 0.0 | 3.2 | 0.00 | 0.00 | 0.00 | 68 | 998.0 |
| 20260905161040 | 15 | 237 | 0.0 | 1.6 | 0.00 | 0.00 | 0.00 | 63 | 997.8 |
| 20260905155053 | 16 | 250 | 1.6 | 4.8 | 0.00 | 0.00 | 0.00 | 54 | 997.5 |
| 20260905153247 | 16 | 208 | 0.0 | 4.8 | 0.00 | 0.00 | 0.00 | 55 | 997.4 |
| 20260905151259 | 17 | 108 | 1.6 | 4.8 | 0.00 | 0.00 | 0.00 | 52 | 997.3 |
| 20260905142327 | 18 | 155 | 3.2 | 9.7 | 0.00 | 0.00 | 0.00 | 45 | 996.8 |
| 20260905140402 | 18 | 230 | 3.2 | 11.3 | 0.00 | 0.00 | 0.00 | 40 | 996.7 |
| 20260905134513 | 18 | 291 | 3.2 | 9.7 | 0.00 | 0.00 | 0.00 | 44 | 996.6 |
| 20260905132837 | 17 | 170 | 1.6 | 6.4 | 0.00 | 0.00 | 0.00 | 48 | 996.5 |
| 20260905131228 | 17 | 196 | 3.2 | 11.3 | 0.00 | 0.00 | 0.00 | 47 | 996.4 |
| 20260905125253 | 18 | 221 | 4.8 | 12.9 | 0.00 | 0.00 | 0.00 | 42 | 996.3 |
| 20260905123308 | 18 | 242 | 6.4 | 16.1 | 0.00 | 0.00 | 0.00 | 49 | 996.2 |
| 20260905121408 | 18 | 224 | 4.8 | 16.1 | 0.00 | 0.00 | 0.00 | 45 | 996.0 |
| 20260905113522 | 17 | 219 | 6.4 | 16.1 | 0.00 | 0.00 | 0.00 | 47 | 995.9 |
| 20260905111749 | 17 | 217 | 6.4 | 14.5 | 0.00 | 0.00 | 0.00 | 48 | 995.8 |
| 20260905105803 | 17 | 205 | 4.8 | 11.3 | 0.00 | 0.00 | 0.00 | 46 | 995.8 |
| 20260905102330 | 17 | 150 | 3.2 | 11.3 | 0.00 | 0.00 | 0.00 | 53 | 995.5 |
| 20260905100609 | 17 | 213 | 3.2 | 9.7 | 0.00 | 0.00 | 0.00 | 52 | 995.4 |
| 20260905094611 | 16 | 232 | 4.8 | 12.9 | 0.00 | 0.00 | 0.00 | 53 | 995.2 |
| 20260905092857 | 16 | 218 | 3.2 | 9.7 | 0.00 | 0.00 | 0.00 | 57 | 995.2 |
| 20260905090938 | 15 | 222 | 3.2 | 11.3 | 0.00 | 0.00 | 0.00 | 63 | 995.1 |
| 20260905085114 | 14 | 192 | 1.6 | 9.7 | 0.00 | 0.00 | 0.00 | 69 | 995.0 |
| 20260905083433 | 13 | 171 | 3.2 | 8.0 | 0.00 | 0.00 | 0.00 | 75 | 994.9 |
| 20260905081608 | 12 | 212 | 1.6 | 6.4 | 0.00 | 0.00 | 0.00 | 78 | 994.9 |
| 20260905075618 | 12 | 205 | 1.6 | 6.4 | 0.00 | 0.00 | 0.00 | 80 | 994.7 |
| 20260905073953 | 12 | 247 | 1.6 | 6.4 | 0.00 | 0.00 | 0.00 | 82 | 994.7 |
| 20260905072305 | 12 | 188 | 1.6 | 3.2 | 0.00 | 0.00 | 0.00 | 89 | 994.5 |
| 20260905064543 | 11 | 202 | 1.6 | 4.8 | 0.00 | 0.00 | 0.00 | 92 | 994.4 |
| 20260905062928 | 11 | 200 | 1.6 | 3.2 | 0.00 | 0.00 | 0.00 | 92 | 994.3 |
| 20260905060933 | 11 | 358 | 1.6 | 3.2 | 0.00 | 0.00 | 0.00 | 92 | 994.2 |
| 20260905055238 | 10 | 176 | 1.6 | 4.8 | 0.00 | 0.00 | 0.00 | 92 | 994.1 |